Showing default

CONNECTA IOT-3, 60475

Orbit data source: Space-Track

CONNECTA IOT-3, 60475 is a payload satellite owned by Plan-S (TR) in SSO that was launched on Fri, 16 Aug 2024 UTC via an FALCON 9 launch vehicle from the Air Force Western Test Range (AFWTR). Payload-class satellites include a variety of spacecraft equipped with specific instruments for various scientific and technological missions. These include communications satellites like Starlink; space stations such as the ISS; scientific satellites like the Hubble; Earth observation satellites from companies like Planet Labs, Umbra, and HawkEye 360; GPS; miniature CubeSats for education and research; and military/defense satellites.

Loading next visibility...
Identifier
60475, 2024-149H
Orbit
SSO
Country
Flag of TRTR / TURK
Related business
Manufacturer
Plan-S
Mission
Operational Commercial Communications
Bus & Motor
CUBESAT 6U, Unknown motor
Mass
10 kg wet, 10 kg dry
Launch date (UTC)
2024-08-16 (2 years ago)
Launch vehicle
FALCON 9
Launch site
Air Force Western Test Range (AFWTR)
Object type
Payload
Rocket body
Debris
Shape & HBR
Box, 2.2 m
Radar Cross Section
0.080 m², Medium (>0.1 m² and < 1m²)

Expand to show TLE details & history
Last TLE update: 8 hours ago

TLE from 8 hours ago
0 CONNECTA IOT-3
1 60475U 24149H   26126.73529791  .00004119  00000-0  17689-3 0  9991
2 60475  97.3735 203.5012 0004317  67.5615 292.6078 15.23235058 95491
Epoch: 2026-05-06T17:38Z
TLE epoch observation values (Epoch: 2026-05-06T17:38:49.739Z)
Latitude
-0.0001°
Longitude
74.20244°
Altitude
498.046 km
Speed
7.616 km/s
True Right ascension
13h 34m 00s
True Declination
0° 00' 00"
Sunlit
Object was in full shadow at epoch
Visualization orbit readout
Latitude
Unknown
Longitude
Unknown
Altitude
Unknown
Speed
Unknown
Apparent Right ascension
Unknown
Apparent Declination
Unknown
Sunlit
N/A
Visualization observer readout
Local Sidereal Time
09:27:17
Azimuth
Unknown
Elevation
Unknown
Doppler factor
Unknown
Orbital elements
Apogee altitude
496.017 km
Perigee altitude
490.084 km
Semi-major axis
6,871.187 km
Eccentricity
0.00043
Inclination
97.3735°
RAAN
203.5012°
Arg. of periapsis
67.5615°
True anomaly
292.56212°
Mean anomaly
292.6078°
Eccentric anomaly
292.58496°
Mean motion
3.81062 °/min
Orbital period
94.47 mins
BSTAR
0.00017689
Loading maneuver chart data...
Computing Atmospheric mass density...
Loading historical data...
Loading historical data...
Loading historical data...
Loading historical data...
Loading historical data...
Loading historical data...
Loading historical data...

Documentation

Showing up to 5 results
|